Content
SEND FEEDBACK

Daily
Averages
Monthly
Summary
United States of America

PUT IN BAY, OHIO


Home > North America > United States > Ohio
Elevation: 561 feet     Latitude: 41 39N     Longitude: 082 48W

WEATHER
 
SELECT A DAY
Number of Records: 123,078;   Date Range: 12/10/00 - 9/18/14
 
SHARE

PRINT THIS DATA

[ ← Previous Day ]
WEATHER ALMANAC - JUNE 27, 2013
[ Next Day → ]
[ °C ]   °F
Weather ElementAverageHighLow
Temperature71.9 °F77.2 °F (1:00 pm)66 °F (10:00 pm)
Dewpoint67.8 °F70.7 °F (10:00 am)64.2 °F (10:00 pm)
Humidity86.7 %96 % (6:00 am)67 % (2:00 pm)
Barometer29.69 in29.73 in (1:00 am)29.62 in (9:00 pm)
Wind Speed4.4 mph11.5 mph (3:00 pm)
Weather ElementAverage
Wind DirectionSSE (154.2 °)

Weather ElementTotal
Precipitation0.63 in
Cooling Degree Days6.6 (Base 65)
Growing Degree Days21.6 (Base 50)
Averaged from 26 records on June 27, 2013
WEATHER CONDITIONS BREAKOUT
WIND DIRECTION BREAKOUT
WEATHER BY HOUR - JUNE 27, 2013
[ °C ]   °F
Local TimeTemperatureDewpointHumidityBarometerVisibilityWind DirectionWind SpeedGust SpeedPrecipitationEventsConditions
1:00 AM72.3 °F69.8 °F92 %29.73 inSouth (170°)5.8 mph
2:00 AM72.0 °F69.0 °F85 %29.73 inSSW (200°)4.6 mph
2:00 AM72.1 °F68.5 °F88 %29.73 inSSW (200°)4.6 mph
3:00 AM71.2 °F68.9 °F92 %29.71 inSSW (210°)2.3 mph0.02 in
4:00 AM71.1 °F69.4 °F95 %29.71 inSSE (150°)1.2 mph0.02 in
5:00 AM70.5 °F69.1 °F95 %29.71 inSouth (190°)2.3 mph0.04 in
6:00 AM70.3 °F69.1 °F96 %29.70 inSSW (200°)1.2 mph0.05 in
7:00 AM70.5 °F69.3 °F96 %29.71 inSSW (210°)1.2 mph0.02 in
8:00 AM71.1 °F69.6 °F95 %29.71 inNW (320°)1.2 mph
9:00 AM72.0 °F70.0 °F93 %29.70 inENE (60°)3.5 mph
10:00 AM74.8 °F70.7 °F87 %29.70 inNE (50°)4.6 mph
11:00 AM75.7 °F69.6 °F81 %29.70 inNE (50°)6.9 mph
12:00 PM76.1 °F68.2 °F76 %29.70 inSE (130°)4.6 mph
1:00 PM77.2 °F66.2 °F69 %29.70 inESE (120°)5.8 mph
2:00 PM77.0 °F68.0 °F67 %29.70 inSSE (160°)8.1 mph
2:00 PM76.6 °F68.2 °F75 %29.70 inSSE (160°)8.1 mph
3:00 PM76.8 °F66.6 °F70 %29.69 inSSE (160°)11.5 mph
4:00 PM75.4 °F64.6 °F69 %29.68 inSSE (150°)10.4 mph
5:00 PM72.5 °F65.8 °F80 %29.66 inSSE (150°)6.9 mph
6:00 PM70.9 °F68.0 °F91 %29.68 inEast (80°)2.3 mph0.03 in
7:00 PM69.6 °F67.6 °F93 %29.73 inNorth (10°)6.9 mph0.08 in
8:00 PM67.0 °F66.0 °F95 %29.68 inEast (80°)1.2 mph
8:00 PM67.3 °F65.8 °F95 %29.68 inEast (80°)1.2 mph0.33 in
9:00 PM67.8 °F65.7 °F93 %29.62 inSouth (170°)2.3 mph0.04 in
10:00 PM66.0 °F64.2 °F94 %29.63 inWSW (250°)4.6 mph
11:00 PM66.4 °F64.4 °F93 %29.63 inWNW (300°)1.2 mph
Hourly data recorded from CXHA, located miles away from Put In Bay, Ohio







STORIES FROM OUR PARTNERS